This demonstration page uses our WeatherBlox Daily Observations layout. Learn more.

Hourly Observations for August 30, 2017

Temp ( °F °C ) Dew Point ( °F °C ) Humidity (%) Winds ( mph kmh ) Pressure ( in mb ) Visibility ( mi km ) Precip ( " mm )
12:15 am 00:15 Cloudy 63 17 63 17 100 100 N 5 7 30.06 1018 7 11.265408 0 0
12:35 am 00:35 Cloudy 63 17 63 17 100 100 NNE 7 11 30.03 1017 7 11.265408 0 0
12:50 am 00:50 Cloudy 63 17 63 17 100 100 N 7 11 30.03 1017 7 11.265408 0 0
1:15 am 01:15 Cloudy 63 17 63 17 100 100 N 6 9 30.03 1017 10 16.09344 0 0
1:35 am 01:35 Cloudy 63 17 63 17 100 100 NNE 6 9 30.03 1017 10 16.09344 0 0
1:55 am 01:55 Cloudy 63 17 63 17 100 100 NNE 7 11 30.03 1017 10 16.09344 0 0
2:15 am 02:15 Cloudy 63 17 63 17 100 100 NNE 6 9 30.03 1017 10 16.09344 0 0
2:35 am 02:35 Cloudy 63 17 63 17 100 100 N 3 6 30.03 1017 10 16.09344 0 0
2:55 am 02:55 Cloudy 63 17 63 17 100 100 NNE 5 7 30.03 1017 10 16.09344 0 0
3:15 am 03:15 Cloudy 63 17 63 17 100 100 NNE 5 7 30.03 1017 10 16.09344 0 0
3:35 am 03:35 Cloudy 63 17 63 17 100 100 Calm 30.03 1017 10 16.09344 0 0
3:55 am 03:55 Cloudy 63 17 63 17 100 100 NNW 3 6 30.03 1017 10 16.09344 0 0
4:15 am 04:15 Cloudy 63 17 63 17 100 100 NNW 3 6 30.03 1017 10 16.09344 0 0
4:35 am 04:35 Mostly Cloudy 61 16 61 16 100 100 NNW 3 6 30.03 1017 10 16.09344 0 0
4:55 am 04:55 Partly Cloudy 61 16 61 16 100 100 NNW 3 6 30.03 1017 10 16.09344 0 0
5:15 am 05:15 Partly Cloudy 61 16 61 16 100 100 Calm 30.03 1017 7 11.265408 0 0
5:35 am 05:35 Partly Cloudy 61 16 61 16 100 100 Calm 30.03 1017 7 11.265408 0 0
5:55 am 05:55 Partly Cloudy with Mist and Fog 61 16 61 16 100 100 Calm 30.03 1017 5 8.04672 0 0
6:15 am 06:15 Mostly Cloudy with Mist and Fog 59 15 59 15 100 100 Calm 30.03 1017 0.75 1.207008 0 0
6:35 am 06:35 Mostly Cloudy with Fog 59 15 59 15 100 100 NW 3 6 30.03 1017 0.5 0.804672 0 0
6:55 am 06:55 Partly Cloudy with Mist and Fog 59 15 59 15 100 100 N 3 6 30.03 1017 4 6.437376 0 0
7:15 am 07:15 Sunny with Mist and Fog 59 15 59 15 100 100 Calm 30.06 1018 5 8.04672 0 0
7:35 am 07:35 Sunny with Mist and Fog 59 15 59 15 100 100 Calm 30.06 1018 5 8.04672 0 0
7:55 am 07:55 Sunny with Mist and Fog 61 16 61 16 100 100 NW 3 6 30.06 1018 5 8.04672 0 0
8:15 am 08:15 Sunny 63 17 63 17 100 100 NW 5 7 30.06 1018 10 16.09344 0 0
8:35 am 08:35 Sunny 63 17 63 17 100 100 Calm 30.06 1018 10 16.09344 0 0
8:55 am 08:55 Sunny 64 18 63 17 94 94 NNW 3 6 30.06 1018 10 16.09344 0 0
9:15 am 09:15 Partly Cloudy 64 18 63 17 94 94 N 3 6 30.06 1018 10 16.09344 0 0
9:35 am 09:35 Partly Cloudy 66 19 63 17 88 88 N 3 6 30.06 1018 10 16.09344 0 0
9:55 am 09:55 Partly Cloudy 66 19 63 17 88 88 N 5 7 30.06 1018 10 16.09344 0 0
10:15 am 10:15 Partly Cloudy 68 20 63 17 83 83 Calm 30.06 1018 10 16.09344 0 0
10:35 am 10:35 Partly Cloudy 68 20 63 17 83 83 NW 5 7 30.06 1018 10 16.09344 0 0
10:55 am 10:55 Partly Cloudy 70 21 63 17 78 78 NW 3 6 30.06 1018 10 16.09344 0 0
11:15 am 11:15 Partly Cloudy 70 21 63 17 78 78 NW 8 13 30.06 1018 10 16.09344 0 0
11:35 am 11:35 Partly Cloudy 72 22 63 17 73 73 Calm 30.06 1018 10 16.09344 0 0
11:55 am 11:55 Partly Cloudy 72 22 63 17 73 73 NNW 3 6 30.06 1018 10 16.09344 0 0
12:15 pm 12:15 Partly Cloudy 73 23 63 17 69 69 N 3 6 30.06 1018 10 16.09344 0 0
12:35 pm 12:35 Partly Cloudy 73 23 64 18 74 74 NNW 5 7 30.06 1018 10 16.09344 0 0
12:55 pm 12:55 Partly Cloudy 73 23 63 17 69 69 NW 6 9 30.06 1018 10 16.09344 0 0
1:15 pm 13:15 Partly Cloudy 75 24 64 18 69 69 W 7 11 30.06 1018 10 16.09344 0 0
1:35 pm 13:35 Mostly Cloudy 75 24 64 18 69 69 WNW 7 11 30.03 1017 10 16.09344 0 0
1:55 pm 13:55 Mostly Cloudy 75 24 63 17 65 65 Calm 30.03 1017 10 16.09344 0 0
2:15 pm 14:15 Partly Cloudy 77 25 63 17 61 61 NNW 6 9 30.03 1017 10 16.09344 0 0
2:35 pm 14:35 Mostly Cloudy with Haze 77 25 63 17 61 61 WNW 3 6 30.03 1017 5 8.04672 0 0
2:55 pm 14:55 Mostly Cloudy 77 25 63 17 61 61 W 6 9 30.03 1017 10 16.09344 0 0
3:15 pm 15:15 Mostly Cloudy 77 25 63 17 61 61 W 3 6 30.03 1017 10 16.09344 0 0
3:35 pm 15:35 Partly Cloudy 79 26 63 17 58 58 Calm 30 1016 10 16.09344 0 0
3:55 pm 15:55 Sunny 79 26 63 17 58 58 N 3 6 30 1016 10 16.09344 0 0
4:15 pm 16:15 Partly Cloudy 79 26 63 17 58 58 Calm 30 1016 10 16.09344 0 0
4:35 pm 16:35 Partly Cloudy 77 25 63 17 61 61 Calm 30 1016 10 16.09344 0 0
4:55 pm 16:55 Partly Cloudy 79 26 63 17 58 58 Calm 30 1016 10 16.09344 0 0
5:15 pm 17:15 Sunny 79 26 63 17 58 58 Calm 30 1016 10 16.09344 0 0
5:35 pm 17:35 Sunny 79 26 63 17 58 58 Calm 30 1016 10 16.09344 0 0
5:55 pm 17:55 Sunny 79 26 63 17 58 58 Calm 30 1016 10 16.09344 0 0
6:15 pm 18:15 Sunny 77 25 63 17 61 61 Calm 30 1016 10 16.09344 0 0
6:35 pm 18:35 Sunny 77 25 64 18 65 65 Calm 30 1016 10 16.09344 0 0
6:55 pm 18:55 Sunny 77 25 64 18 65 65 SSW 5 7 30 1016 10 16.09344 0 0
7:15 pm 19:15 Sunny 75 24 64 18 69 69 SSW 5 7 30 1016 10 16.09344 0 0
7:35 pm 19:35 Sunny 73 23 64 18 74 74 SSW 3 6 30 1016 10 16.09344 0 0
7:55 pm 19:55 Partly Cloudy 72 22 64 18 78 78 Calm 30.03 1017 10 16.09344 0 0
8:15 pm 20:15 Partly Cloudy 72 22 66 19 83 83 Calm 30.03 1017 10 16.09344 0 0
8:35 pm 20:35 Partly Cloudy 70 21 66 19 88 88 Calm 30.03 1017 10 16.09344 0 0
8:55 pm 20:55 Mostly Cloudy 70 21 68 20 94 94 Calm 30.03 1017 10 16.09344 0 0
9:15 pm 21:15 Partly Cloudy 70 21 68 20 94 94 Calm 30.03 1017 10 16.09344 0 0
9:35 pm 21:35 Clear 70 21 68 20 94 94 Calm 30.03 1017 10 16.09344 0 0
9:55 pm 21:55 Clear 68 20 66 19 94 94 Calm 30.03 1017 10 16.09344 0 0
10:15 pm 22:15 Partly Cloudy 68 20 68 20 100 100 Calm 30.03 1017 10 16.09344 0 0
10:35 pm 22:35 Partly Cloudy 68 20 68 20 100 100 Calm 30.03 1017 10 16.09344 0 0
10:55 pm 22:55 Partly Cloudy 68 20 66 19 94 94 SSW 5 7 30.03 1017 10 16.09344 0 0
11:15 pm 23:15 Clear 68 20 66 19 94 94 SW 3 6 30.03 1017 10 16.09344 0 0
11:35 pm 23:35 Clear 68 20 66 19 94 94 SW 3 6 30.03 1017 10 16.09344 0 0
11:55 pm 23:55 Clear 68 20 64 18 88 88 Calm 30.03 1017 10 16.09344 0 0

Powered by AerisWeather